WA4FG Weather Reports


time (UTC)temp
C
wind
direction
speed
KPH
gust
KPH
rain 1hr
cm
rain 24hr
cm
rain mn
cm
humidity
%
barometer
mb
20260505030704 15 125 0.0 0.0 0.00 0.00 0.00 75 1013.6
20260505030205 15 125 0.0 0.0 0.00 0.00 0.00 75 1013.7
20260505025638 15 125 0.0 0.0 0.00 0.00 0.00 74 1013.7
20260505025132 15 125 0.0 0.0 0.00 0.00 0.00 73 1013.7
20260505024633 16 125 0.0 0.0 0.00 0.00 0.00 73 1013.8
20260505024106 16 125 0.0 0.0 0.00 0.00 0.00 72 1013.8
20260505023535 16 125 0.0 0.0 0.00 0.00 0.00 71 1013.7
20260505023021 16 125 0.0 0.0 0.00 0.00 0.00 71 1013.7
20260505022521 16 125 0.0 0.0 0.00 0.00 0.00 70 1013.7
20260505021510 17 125 0.0 0.0 0.00 0.00 0.00 68 1013.6
20260505021010 17 125 0.0 0.0 0.00 0.00 0.00 67 1013.6
20260505020515 17 125 0.0 0.0 0.00 0.00 0.00 66 1013.5
20260505015459 17 125 0.0 0.0 0.00 0.00 0.00 64 1013.3
20260505014958 17 125 0.0 0.0 0.00 0.00 0.00 63 1013.3
20260505013924 18 125 0.0 0.0 0.00 0.00 0.00 62 1013.3
20260505013403 18 125 0.0 0.0 0.00 0.00 0.00 61 1013.2
20260505012858 18 125 0.0 0.0 0.00 0.00 0.00 59 1013.2
20260505012357 19 125 0.0 0.0 0.00 0.00 0.00 57 1013.2
20260505011855 19 125 0.0 0.0 0.00 0.00 0.00 57 1013.1
20260505011336 20 125 0.0 0.0 0.00 0.00 0.00 56 1013.1
20260505010834 20 125 0.0 0.0 0.00 0.00 0.00 56 1013.1
20260505010338 20 125 0.0 0.0 0.00 0.00 0.00 54 1013.0
20260505005811 20 125 0.0 0.0 0.00 0.00 0.00 55 1013.0
20260505005243 21 125 0.0 0.0 0.00 0.00 0.00 52 1013.0
20260505004729 21 125 0.0 0.0 0.00 0.00 0.00 51 1012.9
20260505004227 21 125 0.0 0.0 0.00 0.00 0.00 51 1012.9
20260505003702 21 125 0.0 0.0 0.00 0.00 0.00 50 1012.9
20260505003136 22 125 0.0 0.0 0.00 0.00 0.00 50 1012.9
20260505002609 22 125 0.0 0.0 0.00 0.00 0.00 50 1012.8
20260505002050 22 125 0.0 0.0 0.00 0.00 0.00 52 1012.7
20260505001550 22 125 0.0 0.0 0.00 0.00 0.00 50 1012.6
20260505001047 22 125 0.0 0.0 0.00 0.00 0.00 49 1012.6
20260505000545 23 125 0.0 0.0 0.00 0.00 0.00 47 1012.7
20260505000027 23 125 0.0 0.0 0.00 0.00 0.00 45 1012.8
20260504234948 23 126 0.0 0.0 0.00 0.00 0.00 46 1012.7
20260504233934 23 125 0.0 1.6 0.00 0.00 0.00 44 1012.8
20260504233407 23 125 0.0 1.6 0.00 0.00 0.00 42 1012.8
20260504232839 23 133 0.0 0.0 0.00 0.00 0.00 46 1012.9
20260504232337 24 133 0.0 0.0 0.00 0.00 0.00 45 1013.0
20260504231257 24 133 0.0 0.0 0.00 0.00 0.00 44 1012.9
20260504230731 25 131 0.0 1.6 0.00 0.00 0.00 41 1012.9
20260504230206 25 131 0.0 1.6 0.00 0.00 0.00 41 1012.9
20260504225639 25 131 0.0 6.4 0.00 0.00 0.00 37 1012.9
20260504224633 25 160 0.0 8.0 0.00 0.00 0.00 37 1013.1
20260504224110 25 161 0.0 8.0 0.00 0.00 0.00 39 1013.1
20260504223608 25 150 0.0 6.4 0.00 0.00 0.00 37 1013.1
20260504223103 25 137 0.0 6.4 0.00 0.00 0.00 37 1013.1
20260504222603 25 150 0.0 6.4 0.00 0.00 0.00 36 1013.2
20260504221533 25 172 0.0 6.4 0.00 0.00 0.00 36 1013.2
20260504221032 25 160 0.0 6.4 0.00 0.00 0.00 36 1013.4
20260504220533 25 187 0.0 1.6 0.00 0.00 0.00 35 1013.3
20260504220006 25 187 0.0 0.0 0.00 0.00 0.00 40 1013.3
20260504215502 25 186 0.0 8.0 0.00 0.00 0.00 36 1013.3
20260504214959 25 186 0.0 8.0 0.00 0.00 0.00 34 1013.3
20260504214447 25 117 0.0 8.0 0.00 0.00 0.00 36 1013.4
20260504213945 25 142 0.0 8.0 0.00 0.00 0.00 38 1013.4
20260504213445 25 121 1.6 8.0 0.00 0.00 0.00 38 1013.4
20260504212912 25 121 1.6 12.9 0.00 0.00 0.00 39 1013.5
20260504212410 25 189 0.0 12.9 0.00 0.00 0.00 41 1013.5
20260504211856 25 232 0.0 8.0 0.00 0.00 0.00 38 1013.4
20260504211316 25 72 1.6 8.0 0.00 0.00 0.00 37 1013.5
20260504210812 25 148 0.0 8.0 0.00 0.00 0.00 39 1013.5
20260504210304 25 188 0.0 6.4 0.00 0.00 0.00 41 1013.5
20260504205800 25 188 0.0 6.4 0.00 0.00 0.00 42 1013.6
20260504204731 25 226 1.6 9.7 0.00 0.00 0.00 37 1013.7
20260504204227 25 115 1.6 12.9 0.00 0.00 0.00 37 1013.7
20260504203659 25 105 1.6 12.9 0.00 0.00 0.00 38 1013.7
20260504203144 25 202 0.0 11.3 0.00 0.00 0.00 41 1013.7
20260504202617 25 244 1.6 11.3 0.00 0.00 0.00 38 1013.7
20260504202113 25 190 1.6 11.3 0.00 0.00 0.00 37 1013.8
20260504201546 25 41 0.0 3.2 0.00 0.00 0.00 37 1013.8
20260504201043 25 207 0.0 1.6 0.00 0.00 0.00 39 1013.9
20260504200527 25 173 0.0 1.6 0.00 0.00 0.00 41 1014.0
20260504200029 25 108 0.0 6.4 0.00 0.00 0.00 38 1014.0
20260504195502 25 194 0.0 9.7 0.00 0.00 0.00 38 1014.2
20260504194932 25 164 0.0 1.6 0.00 0.00 0.00 41 1014.2
20260504194431 25 163 0.0 8.0 0.00 0.00 0.00 37 1014.2
20260504193929 25 181 0.0 8.0 0.00 0.00 0.00 38 1014.3
20260504192915 25 194 0.0 6.4 0.00 0.00 0.00 43 1014.5
20260504192353 25 173 0.0 1.6 0.00 0.00 0.00 41 1014.5
20260504191842 25 174 0.0 8.0 0.00 0.00 0.00 37 1014.5
20260504191341 25 186 1.6 9.7 0.00 0.00 0.00 37 1014.6
20260504190828 25 167 0.0 9.7 0.00 0.00 0.00 37 1014.7
20260504190328 25 216 1.6 9.7 0.00 0.00 0.00 39 1014.6
20260504185818 25 183 1.6 9.7 0.00 0.00 0.00 39 1014.8
20260504184805 25 133 0.0 8.0 0.00 0.00 0.00 38 1015.0
20260504184242 25 138 1.6 11.3 0.00 0.00 0.00 38 1015.1
20260504183747 25 163 1.6 11.3 0.00 0.00 0.00 43 1015.2
20260504183220 25 165 0.0 8.0 0.00 0.00 0.00 41 1015.2
20260504182655 25 165 0.0 8.0 0.00 0.00 0.00 40 1015.4
20260504181621 25 144 0.0 1.6 0.00 0.00 0.00 41 1015.6
20260504180619 25 98 0.0 3.2 0.00 0.00 0.00 45 1015.6
20260504175550 25 161 1.6 8.0 0.00 0.00 0.00 40 1015.8
20260504175051 25 173 1.6 8.0 0.00 0.00 0.00 40 1015.9
20260504174537 25 205 1.6 11.3 0.00 0.00 0.00 40 1016.1
20260504174037 25 174 1.6 11.3 0.00 0.00 0.00 43 1015.9
20260504173535 25 171 1.6 8.0 0.00 0.00 0.00 41 1015.9
20260504172501 25 129 0.0 6.4 0.00 0.00 0.00 48 1016.1
20260504172002 24 121 0.0 1.6 0.00 0.00 0.00 42 1016.2
20260504171455 24 61 0.0 1.6 0.00 0.00 0.00 45 1016.3
20260504170953 24 177 0.0 8.0 0.00 0.00 0.00 44 1016.4
20260504160227 23 161 1.6 11.3 0.00 0.00 0.00 42 1017.3
20260504150835 21 24 0.0 1.6 0.00 0.00 0.00 54 1017.4
20260504141139 16 190 0.0 3.2 0.00 0.00 0.00 71 1017.8
20260504140114 15 200 0.0 6.4 0.00 0.00 0.00 76 1018.0
20260504120130 7 201 0.0 0.0 0.00 0.00 0.00 97 1017.8
20260504110414 7 201 0.0 0.0 0.00 0.00 0.00 96 1017.6
20260504100129 7 201 0.0 0.0 0.00 0.00 0.00 96 1017.5
20260504081206 8 201 0.0 0.0 0.00 0.00 0.00 95 1017.3
20260504080655 8 201 0.0 0.0 0.00 0.00 0.00 95 1017.3
20260504080152 8 201 0.0 0.0 0.00 0.00 0.00 95 1017.4
20260504070410 8 201 0.0 0.0 0.00 0.00 0.00 94 1017.7
20260504060215 9 201 0.0 0.0 0.00 0.00 0.00 93 1018.3
20260504050429 10 201 0.0 0.0 0.00 0.00 0.00 91 1018.4
20260504045904 10 201 0.0 0.0 0.00 0.00 0.00 91 1018.4
20260504045334 10 201 0.0 0.0 0.00 0.00 0.00 91 1018.4
20260504044829 10 201 0.0 0.0 0.00 0.00 0.00 91 1018.4
20260504043824 10 201 0.0 0.0 0.00 0.00 0.00 90 1018.5
20260504043300 10 201 0.0 0.0 0.00 0.00 0.00 90 1018.6
20260504042803 10 201 0.0 0.0 0.00 0.00 0.00 90 1018.6
20260504042241 10 201 0.0 0.0 0.00 0.00 0.00 89 1018.6
20260504041738 10 201 0.0 0.0 0.00 0.00 0.00 89 1018.7
20260504041211 10 201 0.0 0.0 0.00 0.00 0.00 88 1018.6
20260504040707 11 201 0.0 0.0 0.00 0.00 0.00 88 1018.6
20260504040206 11 201 0.0 0.0 0.00 0.00 0.00 88 1018.6
20260504035706 11 201 0.0 0.0 0.00 0.00 0.00 88 1018.7
20260504035204 11 201 0.0 0.0 0.00 0.00 0.00 87 1018.8
20260504034657 11 201 0.0 0.0 0.00 0.00 0.00 87 1018.8
20260504034152 11 201 0.0 0.0 0.00 0.00 0.00 86 1018.8
20260504033628 11 201 0.0 0.0 0.00 0.00 0.00 86 1018.9
20260504033105 11 201 0.0 0.0 0.00 0.00 0.00 85 1018.9
20260504032606 11 201 0.0 0.0 0.00 0.00 0.00 85 1019.0
20260504032018 11 201 0.0 0.0 0.00 0.00 0.00 84 1019.0
20260504031453 11 201 0.0 0.0 0.00 0.00 0.00 84 1018.9